Location: Chakepay
(13.3931°S, 72.1925°W)
Time: 11:55:32
(UTC+00:00)

IRS-1A Rocket - Pass Details

Date: 15 November 2019
Orbit: 852 x 931 km, 99.2° (Epoch: 10 December)

Event Time Altitude Azimuth Distance (km) Brightness Sun altitude
Rises 00:22:30 0° 160° (SSE) 3,432 7.4 -20.5°
Reaches altitude 10° 00:24:56 10° 155° (SSE) 2,490 6.7 -21.1°
Maximum altitude 00:30:19 55° 78° (ENE) 1,019 4.2 -22.2°
Enters shadow 00:31:41 44° 31° (NNE) 1,171 4.5 -22.5°
